• In Romania
  • List of Countries
  • For 7 days
  • Water Temperature
  • Satellite Maps
  • Weather Map
  • Weather Widgets
  • user-avatar
    Login

    Hourly Weather Kaposvar

    Today, 23 September, Sunday

    Time Temperature Precipitation Wind Pressure Humidity
    00:00 +13°C° 0 mm 1 mps 752 mmHg 68%
    01:00 +12°C° 0 mm 0 mps 752 mmHg 68%
    02:00 +12°C° 0 mm 0 mps 752 mmHg 66%
    03:00 +12°C° 0 mm 0 mps 752 mmHg 65%
    04:00 +13°C° 0 mm 0 mps 752 mmHg 63%
    05:00 +14°C° 0 mm 1 mps 752 mmHg 61%
    06:00 +14°C° 0 mm 1 mps 752 mmHg 59%
    07:00 +14°C° 0 mm 1 mps 751 mmHg 58%
    08:00 +16°C° 0 mm 2 mps 751 mmHg 52%
    09:00 +17°C° 0 mm 2 mps 751 mmHg 47%
    10:00 +19°C° 0 mm 3 mps 751 mmHg 41%
    11:00 +21°C° 0 mm 3 mps 751 mmHg 41%
    12:00 +22°C° 0 mm 3 mps 750 mmHg 40%
    13:00 +25°C° 0 mm 3 mps 750 mmHg 39%
    14:00 +26°C° 0 mm 3 mps 749 mmHg 41%
    15:00 +26°C° 0 mm 3 mps 748 mmHg 43%
    16:00 +27°C° 0 mm 4 mps 747 mmHg 44%
    17:00 +25°C° 0 mm 3 mps 747 mmHg 50%
    18:00 +24°C° 0 mm 3 mps 746 mmHg 57%
    19:00 +21°C° 0 mm 3 mps 746 mmHg 63%
    20:00 +21°C° 0 mm 3 mps 745 mmHg 63%
    21:00 +21°C° 0 mm 4 mps 745 mmHg 63%
    22:00 +21°C° 0 mm 4 mps 744 mmHg 63%
    23:00 +21°C° 0 mm 4 mps 744 mmHg 65%

    Tomorrow, 24 September, Monday

    Time Temperature Precipitation Wind Pressure Humidity
    00:00 +21°C° 0 mm 5 mps 743 mmHg 67%
    01:00 +21°C° 0 mm 5 mps 742 mmHg 69%
    02:00 +21°C° 0.6 mm 5 mps 742 mmHg 73%
    03:00 +20°C° 0.6 mm 6 mps 743 mmHg 77%
    04:00 +20°C° 0.6 mm 6 mps 743 mmHg 80%
    05:00 +17°C° 1 mm 7 mps 745 mmHg 78%
    06:00 +15°C° 1 mm 7 mps 747 mmHg 75%
    07:00 +12°C° 1 mm 8 mps 749 mmHg 73%
    08:00 +11°C° 0.3 mm 7 mps 750 mmHg 72%
    09:00 +11°C° 0.3 mm 7 mps 752 mmHg 71%
    10:00 +10°C° 0.3 mm 6 mps 753 mmHg 70%
    11:00 +12°C° 0.1 mm 5 mps 754 mmHg 66%
    12:00 +13°C° 0.1 mm 4 mps 754 mmHg 61%
    13:00 +14°C° 0.1 mm 4 mps 755 mmHg 56%
    14:00 +14°C° 0 mm 4 mps 755 mmHg 51%
    15:00 +15°C° 0 mm 5 mps 755 mmHg 45%
    16:00 +16°C° 0 mm 5 mps 755 mmHg 40%
    17:00 +14°C° 0 mm 4 mps 755 mmHg 43%
    18:00 +13°C° 0 mm 4 mps 756 mmHg 46%
    19:00 +11°C° 0 mm 3 mps 756 mmHg 49%
    20:00 +11°C° 0 mm 3 mps 757 mmHg 50%
    21:00 +10°C° 0 mm 3 mps 757 mmHg 51%
    22:00 +10°C° 0 mm 3 mps 758 mmHg 51%
    23:00 +9°C° 0 mm 3 mps 758 mmHg 53%

    Day after tomorrow, 25 September, Tuesday

    Time Temperature Precipitation Wind Pressure Humidity
    00:00 +9°C° 0 mm 3 mps 758 mmHg 55%
    01:00 +8°C° 0 mm 3 mps 758 mmHg 57%
    02:00 +8°C° 0 mm 3 mps 759 mmHg 60%
    03:00 +7°C° 0 mm 3 mps 759 mmHg 62%
    04:00 +7°C° 0 mm 3 mps 759 mmHg 64%
    05:00 +6°C° 0 mm 4 mps 759 mmHg 63%
    06:00 +7°C° 0 mm 4 mps 760 mmHg 61%
    07:00 +7°C° 0 mm 5 mps 760 mmHg 60%
    08:00 +9°C° 0 mm 5 mps 760 mmHg 53%
    09:00 +10°C° 0 mm 6 mps 761 mmHg 45%
    10:00 +12°C° 0 mm 7 mps 761 mmHg 38%
    11:00 +13°C° 0 mm 6 mps 761 mmHg 36%
    12:00 +14°C° 0 mm 6 mps 761 mmHg 35%
    13:00 +15°C° 0 mm 6 mps 761 mmHg 33%
    14:00 +15°C° 0 mm 6 mps 761 mmHg 33%
    15:00 +15°C° 0 mm 5 mps 761 mmHg 34%
    16:00 +15°C° 0 mm 5 mps 760 mmHg 34%
    17:00 +13°C° 0 mm 4 mps 761 mmHg 40%
    18:00 +11°C° 0 mm 3 mps 761 mmHg 45%
    19:00 +9°C° 0 mm 2 mps 762 mmHg 51%
    20:00 +9°C° 0 mm 2 mps 762 mmHg 54%
    21:00 +8°C° 0 mm 2 mps 762 mmHg 56%
    22:00 +7°C° 0 mm 2 mps 763 mmHg 59%
    23:00 +7°C° 0 mm 2 mps 763 mmHg 61%

    26 September, Wednesday

    Time Temperature Precipitation Wind Pressure Humidity
    00:00 +7°C° 0 mm 2 mps 763 mmHg 63%
    01:00 +6°C° 0 mm 2 mps 763 mmHg 65%
    02:00 +6°C° 0 mm 2 mps 763 mmHg 67%
    03:00 +5°C° 0 mm 2 mps 763 mmHg 69%
    04:00 +5°C° 0 mm 2 mps 763 mmHg 70%
    05:00 +7°C° 0 mm 1 mps 764 mmHg 68%
    06:00 +7°C° 0 mm 1 mps 764 mmHg 65%
    07:00 +8°C° 0 mm 1 mps 764 mmHg 63%
    08:00 +9°C° 0 mm 2 mps 764 mmHg 54%
    09:00 +12°C° 0 mm 2 mps 764 mmHg 46%
    10:00 +15°C° 0 mm 2 mps 764 mmHg 37%
    11:00 +16°C° 0 mm 2 mps 763 mmHg 34%
    12:00 +17°C° 0 mm 2 mps 763 mmHg 31%
    13:00 +17°C° 0 mm 2 mps 762 mmHg 28%
    14:00 +17°C° 0 mm 2 mps 762 mmHg 28%
    15:00 +17°C° 0 mm 2 mps 761 mmHg 28%
    16:00 +17°C° 0 mm 2 mps 761 mmHg 28%
    17:00 +15°C° 0 mm 1 mps 761 mmHg 32%
    18:00 +13°C° 0 mm 1 mps 761 mmHg 36%
    19:00 +11°C° 0 mm 1 mps 761 mmHg 40%
    20:00 +11°C° 0 mm 1 mps 761 mmHg 42%
    21:00 +10°C° 0 mm 1 mps 761 mmHg 43%
    22:00 +10°C° 0 mm 1 mps 761 mmHg 44%
    23:00 +9°C° 0 mm 1 mps 760 mmHg 45%

    27 September, Thursday

    Time Temperature Precipitation Wind Pressure Humidity
    00:00 +9°C° 0 mm 1 mps 760 mmHg 45%
    01:00 +9°C° 0 mm 1 mps 760 mmHg 46%
    02:00 +8°C° 0 mm 1 mps 760 mmHg 47%
    03:00 +8°C° 0 mm 1 mps 759 mmHg 48%
    04:00 +8°C° 0 mm 1 mps 759 mmHg 49%
    05:00 +8°C° 0 mm 1 mps 759 mmHg 48%
    06:00 +9°C° 0 mm 1 mps 759 mmHg 47%
    07:00 +10°C° 0 mm 1 mps 759 mmHg 46%
    08:00 +12°C° 0 mm 1 mps 759 mmHg 40%
    09:00 +15°C° 0 mm 2 mps 759 mmHg 35%
    10:00 +17°C° 0 mm 2 mps 759 mmHg 29%
    11:00 +19°C° 0 mm 2 mps 758 mmHg 27%
    12:00 +21°C° 0 mm 1 mps 758 mmHg 25%
    13:00 +23°C° 0 mm 1 mps 757 mmHg 22%
    14:00 +23°C° 0 mm 1 mps 757 mmHg 23%
    15:00 +23°C° 0 mm 1 mps 756 mmHg 23%
    16:00 +23°C° 0 mm 1 mps 756 mmHg 24%
    17:00 +20°C° 0 mm 1 mps 756 mmHg 28%
    18:00 +18°C° 0 mm 1 mps 756 mmHg 32%
    19:00 +15°C° 0 mm 1 mps 756 mmHg 36%
    20:00 +14°C° 0 mm 1 mps 756 mmHg 38%
    21:00 +12°C° 0 mm 0 mps 756 mmHg 39%
    22:00 +12°C° 0 mm 0 mps 756 mmHg 41%
    23:00 +11°C° 0 mm 0 mps 755 mmHg 42%

    28 September, Friday

    Time Temperature Precipitation Wind Pressure Humidity
    00:00 +11°C° 0 mm 0 mps 755 mmHg 43%
    01:00 +10°C° 0 mm 0 mps 755 mmHg 44%
    02:00 +10°C° 0 mm 0 mps 754 mmHg 45%
    03:00 +10°C° 0 mm 0 mps 754 mmHg 46%
    04:00 +9°C° 0 mm 0 mps 754 mmHg 47%
    05:00 +10°C° 0 mm 0 mps 754 mmHg 46%
    06:00 +11°C° 0 mm 0 mps 754 mmHg 46%
    07:00 +12°C° 0 mm 0 mps 754 mmHg 45%
    08:00 +15°C° 0 mm 1 mps 753 mmHg 39%
    09:00 +19°C° 0 mm 1 mps 753 mmHg 32%
    10:00 +21°C° 0 mm 1 mps 753 mmHg 26%
    11:00 +23°C° 0 mm 2 mps 752 mmHg 23%
    12:00 +24°C° 0 mm 2 mps 752 mmHg 21%
    13:00 +25°C° 0 mm 2 mps 751 mmHg 18%
    14:00 +25°C° 0 mm 2 mps 751 mmHg 19%
    15:00 +25°C° 0 mm 2 mps 750 mmHg 20%
    16:00 +25°C° 0 mm 2 mps 749 mmHg 21%
    17:00 +22°C° 0 mm 1 mps 749 mmHg 24%
    18:00 +20°C° 0 mm 1 mps 749 mmHg 27%
    19:00 +16°C° 0 mm 1 mps 749 mmHg 31%
    20:00 +16°C° 0 mm 1 mps 749 mmHg 32%
    21:00 +15°C° 0 mm 1 mps 749 mmHg 33%
    22:00 +15°C° 0 mm 1 mps 749 mmHg 35%
    23:00 +14°C° 0 mm 1 mps 748 mmHg 36%
    Show more